Theta_e
319 320 321 324 324 325 324 324 324 325 323 320 318 317 316 319 321 322 324 324 322 322 323 321 323 326 324 325 325 319 314 316 319 316 316 317 318 319 319 320 319 319 320
321 321 322 322 323 323 323 323 324 324 322 318 319 318 318 318 320 319 320 321 320 320 320 321 321 323 323 326 324 322 315 313 317 314 313 308 311 316 317 319 318 319 319
318 320 320 320 321 321 322 323 324 324 322 321 317 317 317 317 315 316 316 318 320 320 321 321 321 322 322 321 325 324 317 315 316 319 313 306 304 309 314 316 317 317 316
320 317 318 319 320 320 322 323 324 323 320 321 318 318 313 311 314 314 315 317 319 319 320 320 321 322 320 321 324 323 321 319 314 318 317 317 315 308 307 313 314 315 316
317 316 317 318 319 320 321 322 321 320 319 320 319 316 315 314 313 314 316 317 319 318 319 320 320 321 319 321 321 321 321 319 318 317 317 317 317 316 309 305 313 311 312
315 316 317 318 318 319 319 318 316 317 318 317 317 317 315 315 313 314 313 312 313 315 318 318 319 321 320 320 320 321 321 321 318 317 320 318 315 313 312 309 311 308 310
311 313 316 317 317 316 315 312 315 315 316 316 316 315 316 316 315 314 312 313 312 313 317 319 319 319 319 319 320 320 320 319 317 316 318 319 316 313 313 312 310 308 311
311 311 316 316 315 314 312 311 314 313 314 314 315 315 316 313 313 314 313 313 314 316 318 319 318 318 319 319 320 318 318 319 318 317 320 317 316 312 318 315 309 305 309
312 312 315 313 307 312 312 313 313 313 313 314 313 313 313 314 313 314 315 313 315 315 317 317 317 317 318 318 316 314 317 319 320 320 317 315 312 317 318 316 313 307 302
310 313 312 310 309 311 312 312 311 310 311 312 312 313 312 311 310 310 311 312 313 315 315 315 316 316 316 316 315 313 310 310 312 313 310 312 315 316 319 316 312 311 309
310 308 305 307 311 311 310 310 311 309 311 311 312 311 309 309 310 309 309 311 313 313 313 313 312 313 312 314 312 308 307 307 308 311 313 315 317 317 317 315 314 312 308
308 307 308 309 309 309 308 309 310 310 311 310 308 307 310 309 308 307 307 307 307 309 311 310 307 305 307 311 311 309 309 309 310 313 314 313 313 315 316 313 313 312 310
307 307 308 307 307 308 308 308 309 310 310 306 306 308 307 305 306 306 306 306 304 308 310 309 310 309 309 310 312 312 312 312 310 312 314 313 313 312 312 314 312 310 307
305 307 306 305 304 306 305 306 307 305 305 308 307 307 305 304 303 307 306 306 307 303 306 309 309 310 310 309 310 311 312 312 311 313 313 313 313 313 312 312 312 309 306
305 304 303 303 302 303 305 306 306 307 308 306 307 305 304 304 305 305 304 305 306 307 309 308 308 309 309 307 310 310 310 310 310 312 312 313 310 309 310 311 308 308 307
303 303 303 302 302 303 304 305 307 306 307 306 306 305 305 305 307 308 309 308 307 309 308 309 307 307 308 302 303 306 308 309 309 309 311 311 311 309 308 308 308 308 311
303 304 302 303 303 304 306 305 305 307 307 308 308 306 307 304 304 306 305 306 306 310 308 308 308 309 310 301 302 305 309 308 308 308 308 305 307 308 309 306 307 306 306
304 304 303 303 306 306 307 305 307 306 307 307 308 307 308 305 305 305 304 304 305 304 304 304 305 305 306 301 300 303 305 304 304 305 306 308 310 311 310 311 312 312 313
306 305 305 305 306 307 306 306 306 307 306 306 306 307 308 308 305 307 308 306 308 308 307 307 306 305 305 299 299 305 306 305 305 306 306 313 313 300 301 312 312 312 312
306 306 306 306 306 306 308 307 307 306 305 306 307 309 310 308 306 310 310 309 311 310 309 307 307 305 311 298 298 305 306 307 307 313 314 301 305 298 298 315 314 312 314
307 307 306 305 305 306 307 306 308 307 308 309 310 310 310 310 312 313 312 310 306 306 307 308 313 313 310 308 298 299 311 310 313 310 310 310 299 298 297 297 314 308 306
306 306 305 304 306 307 307 306 306 308 309 310 310 309 311 312 313 314 312 315 314 312 312 315 314 315 317 299 299 298 299 304 312 312 313 309 297 298 298 301 297 297 299
307 306 308 306 307 307 308 306 308 310 311 310 310 312 313 313 314 315 314 314 315 313 312 311 310 313 314 316 302 300 301 302 314 314 306 301 299 298 302 298 298 297 319
306 307 308 305 306 308 309 309 310 312 311 311 313 314 314 314 315 314 315 310 308 309 310 311 311 311 311 309 311 315 315 305 312 309 315 309 306 303 307 310 310 314 314
307 307 307 307 307 309 310 312 313 313 312 312 312 311 314 315 315 314 311 309 305 301 307 310 309 308 306 301 295 297 306 309 306 305 313 312 311 311 311 311 311 312 312
305 309 309 309 308 308 311 312 314 313 312 311 313 312 312 313 314 312 309 293 295 293 292 291 296 305 293 292 292 292 292 293 293 311 310 309 309 308 309 309 309 310 309
Wind_Speed
9 8 8 7 8 9 9 11 11 10 8 8 9 8 9 6 6 4 6 6 7 7 6 7 7 7 6 9 7 6 6 7 4 9 7 6 5 5 3 3 4 3 5
10 8 8 7 8 9 10 10 10 9 8 9 7 7 7 7 6 5 7 6 9 8 8 7 9 8 8 9 9 7 3 2 7 9 7 8 6 6 6 3 3 4 6
7 7 8 7 9 9 9 9 9 10 9 10 8 8 8 7 6 8 7 9 7 8 8 8 8 9 9 7 7 7 9 7 6 5 6 3 2 3 3 6 3 5 6
7 6 6 7 8 8 8 9 9 9 9 10 10 10 8 9 7 7 8 10 9 8 9 7 8 8 8 6 6 7 8 7 6 3 5 6 6 3 3 2 2 5 4
4 8 8 8 6 7 8 8 9 9 9 10 10 10 11 10 9 9 11 9 6 5 7 8 8 8 7 7 6 6 6 5 6 5 3 4 4 4 5 4 1 3 5
5 7 5 4 5 6 8 8 9 9 9 11 10 10 12 11 10 10 10 9 9 5 7 9 8 7 6 5 5 5 6 6 5 5 3 3 2 2 1 4 4 5 4
9 10 8 9 8 9 10 9 10 11 12 12 11 12 12 12 12 12 10 12 9 8 7 9 7 6 7 7 7 6 5 5 5 5 3 3 2 5 4 3 4 4 4
6 9 8 9 11 10 11 11 12 14 13 12 12 12 12 9 9 9 9 9 9 9 9 8 7 7 6 6 7 6 5 4 3 5 0 1 1 5 3 3 5 7 5
5 7 8 9 8 10 9 11 12 13 13 14 11 11 9 11 11 13 11 10 9 8 9 8 8 8 8 9 8 8 8 4 2 1 4 2 3 5 3 3 4 5 6
3 5 8 8 7 7 10 9 12 14 15 13 10 10 12 12 11 11 12 12 11 11 9 8 8 7 8 9 8 9 7 6 5 3 2 3 5 5 4 3 4 3 6
5 7 8 6 8 11 11 12 13 11 11 11 12 12 11 9 9 9 11 11 12 8 9 10 9 9 9 8 8 7 5 4 3 2 4 7 4 3 3 4 4 7 5
8 3 7 10 12 13 13 11 9 11 10 10 11 9 12 13 11 10 8 10 12 8 7 6 7 7 6 6 8 4 5 6 6 5 5 6 5 4 3 5 4 6 5
10 10 11 12 14 13 12 11 10 10 11 10 8 10 11 11 14 10 9 7 6 9 7 8 7 5 5 7 5 3 4 2 5 6 6 5 5 6 7 7 6 5 3
7 10 11 12 11 12 12 13 12 10 8 8 10 10 11 9 8 9 10 10 5 4 8 7 6 8 10 9 9 8 6 6 4 5 6 6 7 10 9 7 8 5 3
10 11 11 11 11 11 10 10 8 7 9 9 9 10 8 7 6 7 7 8 8 5 5 6 8 10 8 7 10 9 7 6 5 3 5 6 7 7 8 7 5 4 1
10 11 11 12 10 9 9 7 8 9 8 11 10 7 10 8 11 7 5 4 4 6 8 7 6 4 5 9 10 10 5 6 5 5 6 8 8 7 7 7 5 3 4
9 9 13 9 8 9 8 8 8 8 11 9 11 9 6 8 9 11 11 11 8 8 7 9 9 9 9 10 8 11 7 6 6 7 7 5 4 4 2 1 4 3 1
7 10 8 7 7 6 7 7 10 9 9 10 10 9 10 8 7 9 9 8 7 7 6 7 7 7 7 10 8 8 7 6 6 5 4 2 2 5 4 3 2 3 3
7 7 6 6 6 7 8 7 7 8 8 9 9 10 11 10 9 11 10 7 6 5 5 5 5 5 5 9 8 5 3 5 4 3 3 2 3 6 9 5 5 6 5
7 6 6 4 5 9 6 7 7 8 8 9 9 9 8 8 7 6 7 5 5 6 5 6 5 7 6 8 6 4 5 4 2 3 4 4 7 7 10 7 6 6 6
4 4 5 7 6 5 6 7 8 9 8 8 6 7 7 6 6 7 5 3 4 4 4 4 6 7 7 8 9 12 5 4 3 5 6 7 5 6 7 8 7 6 9
4 5 4 3 3 5 6 8 8 7 6 5 6 6 6 4 4 6 5 6 4 3 2 3 4 7 6 5 6 7 7 10 6 6 5 5 5 7 8 9 6 8 9
4 4 2 5 4 5 6 7 7 6 5 7 7 8 7 6 6 9 8 9 9 8 9 9 7 6 4 5 8 5 4 5 3 6 3 6 9 12 9 12 11 11 3
5 3 3 6 5 6 5 5 5 5 7 7 7 7 7 5 6 5 6 9 8 7 7 8 8 9 9 10 11 8 4 6 2 5 2 2 7 5 6 4 2 6 6
4 3 5 4 5 5 6 6 6 7 7 6 7 5 5 6 7 10 9 9 10 8 9 8 7 8 9 9 8 7 8 8 6 11 5 6 6 7 7 7 8 8 9
1 3 3 2 7 4 5 7 7 6 4 5 4 6 2 5 5 5 8 7 8 5 7 8 11 7 9 8 9 9 10 11 11 2 6 7 7 8 8 8 8 8 9
Wind_Direction
131 117 127 118 111 99 76 53 45 32 13 11 355 350 345 337 331 345 346 327 339 322 298 284 263 234 244 235 214 216 226 239 298 286 266 235 234 245 293 298 330 356 276
103 86 79 73 72 67 53 42 34 28 17 6 355 346 341 338 328 360 322 332 330 322 305 323 306 295 285 254 246 217 240 264 242 273 284 272 172 204 210 261 264 33 289
109 91 82 58 44 43 35 30 22 19 25 359 357 357 335 341 351 345 333 357 315 313 312 312 302 306 293 310 253 216 203 253 220 262 291 304 349 261 180 194 304 329 325
78 111 74 45 34 24 21 17 17 14 11 3 349 348 334 338 338 322 1 309 328 317 305 307 304 301 311 297 281 239 237 242 279 243 251 288 334 300 269 271 7 297 304
52 58 40 23 26 18 12 21 11 3 2 348 344 333 348 333 333 333 336 310 317 308 321 314 302 297 306 320 296 262 251 269 275 282 308 240 249 245 305 292 272 327 321
64 39 22 358 9 8 15 6 360 351 345 339 338 342 334 330 331 340 312 340 319 358 323 327 325 323 315 310 310 300 274 258 287 292 308 288 271 232 256 308 325 290 2
29 311 315 357 11 15 9 347 353 338 342 339 341 336 332 322 322 335 334 324 330 335 333 332 337 326 328 336 339 324 285 268 270 290 271 247 252 313 356 335 321 305 301
249 273 333 353 352 0 3 330 340 338 341 343 335 331 336 337 331 334 333 331 334 326 332 333 342 343 348 354 346 335 321 316 249 229 45 30 30 282 318 308 316 320 346
266 309 336 14 360 353 317 343 345 341 355 341 337 344 342 336 345 342 334 336 333 330 342 347 4 13 17 26 32 23 357 333 354 39 128 110 287 272 297 303 305 315 328
321 343 16 19 339 312 338 354 356 5 354 354 354 357 359 359 349 333 324 325 329 336 343 10 14 23 33 43 23 48 15 30 26 61 124 248 273 296 301 272 264 314 272
28 33 38 298 333 339 349 20 10 340 349 357 1 356 355 323 324 341 350 341 333 348 17 30 26 26 23 30 53 41 21 29 4 303 236 252 267 290 287 283 301 272 347
46 29 336 348 352 347 11 5 343 347 355 3 5 343 356 3 358 356 3 13 5 351 11 40 41 17 6 2 358 28 16 2 344 352 348 30 14 331 283 270 332 356 8
23 3 351 358 14 10 358 351 352 353 6 8 326 18 1 17 344 12 1 331 30 2 12 7 9 13 349 348 340 332 313 285 303 338 341 348 337 321 340 325 320 11 41
358 12 357 14 19 3 11 7 19 17 353 327 22 10 15 349 343 1 6 358 48 2 341 356 336 8 21 4 347 336 316 313 299 307 322 328 349 6 339 355 20 13 329
7 8 8 20 24 10 5 7 9 354 358 25 12 28 353 347 348 350 20 4 10 348 6 358 26 26 33 17 355 354 19 4 352 347 342 46 17 14 10 2 350 339 309
9 7 17 31 12 1 354 5 5 9 8 21 13 32 3 6 358 17 9 38 36 24 21 28 29 15 33 6 350 339 11 21 18 2 11 36 30 14 11 22 28 6 307
17 5 40 19 358 8 347 5 9 22 25 0 11 24 35 18 10 16 17 16 14 24 27 21 18 20 24 6 4 350 42 34 28 27 24 14 5 360 17 34 294 182 322
16 33 24 10 360 12 10 25 22 26 16 17 13 18 25 24 23 19 20 13 16 20 24 30 28 22 21 7 16 29 38 39 36 31 22 10 65 60 301 247 353 48 58
38 31 14 347 342 26 36 23 24 28 25 20 15 11 5 35 13 14 16 13 14 31 26 21 19 7 17 3 7 31 58 59 59 54 19 356 48 20 322 312 51 68 56
51 22 28 6 42 48 28 14 9 21 10 359 350 3 14 15 8 24 36 26 37 46 42 48 25 16 39 42 351 296 146 88 114 138 112 68 12 343 327 345 32 52 30
39 29 49 55 41 21 357 360 2 15 358 353 350 1 15 15 24 48 42 56 82 54 60 64 71 77 34 59 7 351 81 120 127 86 88 74 16 343 331 319 358 359 321
30 57 78 86 39 360 355 355 2 357 352 7 24 34 44 51 75 66 35 49 28 62 24 78 94 90 75 30 63 9 358 331 73 64 65 86 342 300 285 293 334 292 288
351 78 357 114 56 8 359 351 7 20 46 66 80 77 73 74 48 37 29 39 31 28 37 40 31 34 52 50 150 186 231 250 23 26 20 285 274 265 259 250 267 263 299
68 47 14 69 52 21 4 25 41 75 96 104 91 90 72 60 53 53 15 54 27 32 30 27 39 43 49 29 7 3 150 181 244 174 139 330 288 266 292 310 253 8 4
81 38 55 50 45 6 48 70 74 93 99 82 90 70 69 51 63 61 26 42 44 17 13 16 44 15 34 26 346 344 3 352 4 309 36 32 24 23 22 24 25 26 8
133 66 72 86 66 48 95 87 71 68 58 67 62 69 29 74 85 90 109 85 100 87 62 46 28 85 45 352 336 337 357 349 319 7 33 29 24 24 19 13 12 18 11